星链-3726 (STARLINK-3726 )

导读

STARLINK-3726是美国SpaceX公司星链星座的卫星,于2022年3月19日发射入轨,属于星链低轨互联网星座组网卫星。星链项目旨在构建全球覆盖的宽带卫星互联网,为偏远地区提供高速低延迟网络服务。该卫星运行在近地轨道,配备激光星间链路技术,可提升星座通信效率,支撑全球无缝网络覆盖,是SpaceX大规模星链组网的重要组成部分,助力实现全球互联网普惠覆盖。

基本信息
目录编号:
52122
目录名称:
STARLINK-3726
国际标识:
2022-029AL
轨道中心:
EARTH
卫星名称:
星链-3726
卫星全名:
星链-3726 (STARLINK-3726 )
卫星状态:
在轨 (已飞行1630 天)
发射日期:
2022-03-19 UTC
国别 :
美国 (US)
星等 :
--
轨道信息
数据来源 国际轨道数据 AOE轨道数据
星历时间 2026-09-04T04:25:43+0800
7小时前
查看轨道信息
2026-08-30T07:00:00+0800
5天前
查看轨道信息
半长轴 6843.44km 6843.426km
偏心率 0.0000963 0.0001061
轨道倾角 53.161° 53.160°
近地点辐角 91.853° 69.855°
升交点赤经 347.651° 10.493°
平近点角 268.258° 262.879°
近地点 464.643km 464.562km
远地点 465.963km 466.016km
周期 93.901分钟 93.901分钟
每日圈数 15.33526 15.335307
详细信息
固有亮度:
5
最大亮度:
2.5
卫星平台:
Starlink v1.5
覆盖范围:
全球
运营商:
太空探索技术公司
运营商所在国:
美国
制造商(研发单位):
太空探索技术公司
制造商所在国:
美国
使用方式:
暂无
卫星简介
星链(Starlink)计划是由太空探索技术公司(SpaceX)提出的一个巨型低轨卫星互联网星座项目,计划在2019年至2024年间在太空搭建由约1.2万颗卫星组成的“星链”网络,其中1584颗将部署在地球上空550千米处的近地轨道,并从2020年开始工作。该卫星仍在工作。
2D轨道图
3D轨道图
轨道高度分析图
轨道倾角分析图
轨道综合分析图
查看轨道综合分析图
交会数据列表
事件ID 空间交会对象 最接近时刻(TCA) 交会距离 交会风险概率(CRP) 交会风险指数(CRI) 操作
CDM_260827-195605-212206-286921
2026-08-27T
19:56:07+0000
0.798 km
远距离
2.091651E-5 中风险 0.61
CDM_260828-025405-212206-956621
2026-08-28T
02:54:08+0000
1.224 km
极远距离
1.195342E-5 中风险 0.57
CDM_260828-091405-212206-758021
2026-08-28T
09:14:38+0000
1.217 km
极远距离
1.063276E-5 中风险 0.56
CDM_260828-002605-212206-781421
2026-08-28T
00:26:04+0000
1.459 km
极远距离
4.797186E-6 低风险 0.49
CDM_260827-190705-212206-415921
2026-08-27T
19:07:40+0000
1.834 km
极远距离
3.056811E-6 低风险 0.45
CDM_260904-121705-212206-802922
2026-09-04T
12:17:26+0000
2.019 km
极远距离
2.734707E-6 低风险 0.44
CDM_260904-215305-212206-903221
2026-09-04T
21:53:54+0000
2.098 km
极远距离
2.348573E-6 低风险 0.42
CDM_260828-122005-212206-965821
2026-08-28T
12:20:01+0000
2.222 km
极远距离
1.897462E-6 低风险 0.41
CDM_260904-232405-212206-891221
2026-09-04T
23:24:37+0000
2.275 km
极远距离
1.850574E-6 低风险 0.4
CDM_260903-102705-212206-926621
2026-09-03T
10:27:38+0000
2.227 km
极远距离
1.782615E-6 低风险 0.4